Flag Weather past 2 weeks in Amman, Jordan

Now
50 °F

Rain. Broken clouds.


Feels Like: 43 °F
Forecast: 46 / 48 °F
Wind: 23 mph from West

Location: Amman Airport

Current Time: Nov 26, 2014 at 10:58:17 AM

Latest Report: Nov 26, 2014 at 10:00 AM


Visibility: 3 mi

Pressure: 29.92 "Hg

Humidity: 82%

Dew point: 45 °F

Location of AmmanLocation

Historic Weather in Amman — Graph

°F

Amman temperature yesterday

Maximum temperature yesterday: 55 °F (at 11:00 AM)
Minimum temperature yesterday: 46 °F (at 6:00 AM)
Average temperature yesterday: 51 °F

Past Weeks' High & Low Weather Summary

 TemperatureHumidityPressure
High75 °F (Nov 14, 3:00 PM)100% (Nov 26, 2:00 AM)30.27 "Hg (Nov 26, 2:00 AM)
Low46 °F (Nov 25, 6:00 AM)12% (Nov 14, 3:00 PM)29.89 "Hg (Nov 23, 10:00 PM)
Average58 °F60%30.03 "Hg
* Reported Nov 11 9:00 AM — Nov 26 9:00 AM, Amman, Weather by CustomWeather, © 2014

Note: Actual official high and low records may vary slightly from our data, if they occured in-between our weather recording intervals... More about our weather records

Advertising

Amman weather history for previous 24 hours

 ConditionsComfort  
Time TempWeatherWind HumidityBarometerVisibility
9:00 AM
Nov 26
50 °FRain. Broken clouds.17 mph82%29.92 "Hg2 mi
8:00 AM48 °FRain. Partly sunny.12 mph94%29.92 "Hg2 mi
7:00 AM48 °FRain. Partly sunny.12 mph87%29.92 "Hg2 mi
6:00 AM48 °FRain. Passing clouds.15 mph94%29.92 "Hg2 mi
5:00 AM48 °FRain. Passing clouds.13 mph100%29.92 "Hg2 mi
4:00 AM48 °FRain. Partly cloudy.9 mph100%29.92 "Hg2 mi
3:00 AM48 °FRain. Passing clouds.15 mph100%29.92 "Hg2 mi
2:00 AM48 °FRain. Passing clouds.14 mph100%29.92 "Hg2 mi
1:00 AM50 °FRain. Passing clouds.17 mph88%29.92 "Hg2 mi
12:00 AM50 °FRain. Passing clouds.17 mph82%29.92 "Hg2 mi
11:00 PM
Nov 25
52 °FRain. Partly cloudy.17 mph77%29.92 "Hg2 mi
10:00 PM52 °FPartly cloudy.12 mph77%29.95 "Hg3 mi
9:00 PM52 °FPartly cloudy.12 mph77%29.95 "Hg3 mi
8:00 PM52 °FPartly cloudy.12 mph77%29.95 "Hg3 mi
7:00 PM52 °FPartly cloudy.14 mph82%29.98 "Hg3 mi
6:00 PM52 °FPartly cloudy.9 mph82%29.98 "Hg3 mi
5:00 PM54 °FPartly cloudy.14 mph72%29.95 "Hg3 mi
4:00 PM54 °FScattered clouds.14 mph72%29.98 "Hg3 mi
3:00 PM55 °FScattered clouds.12 mph63%29.98 "Hg3 mi
2:00 PM55 °FScattered clouds.14 mph63%29.95 "Hg3 mi
1:00 PM55 °FHaze.8 mph63%29.98 "Hg3 mi
12:00 PM55 °FHaze.12 mph63%29.98 "Hg3 mi
11:00 AM55 °FScattered clouds.9 mph67%29.98 "Hg3 mi
10:00 AM50 °FHaze.8 mph82%30.01 "Hg3 mi
Weather by CustomWeather, © 2014

See weather overviewHow to use our weather pages